Weather History for Antigo, WI

Change the Weather History Date:

Sunday, April 21, 2013

  Actual Average Record
Temperature  
Mean Temperature 30 °F -  
Max Temperature 34 °F 57 °F 82 °F (1985)
Min Temperature 25 °F 34 °F 17 °F (1982)
Degree Days  
Heating Degree Days 36    
Moisture  
Dew Point 25 °F    
Average Humidity 79    
Maximum Humidity 92    
Minimum Humidity 62    
Precipitation  
Precipitation 0.00 in - - ()
Sea Level Pressure  
Sea Level Pressure 30.32 in    
Wind  
Wind Speed 11 mph (SSE)    
Max Wind Speed 20 mph    
Max Gust Speed 25 mph    
Visibility 10 miles    
Events Rain , Snow    
Averages and records for this station are not official NWS values.
T = Trace of Precipitation, MM = Missing Value Source: NWS Daily Summary

Daily Weather History Graph

Daily Weather History Graph

Search for Another Location

Airport:

Trip Planner

Search our weather history database for the weather conditions in past years. The results will help you decide how hot, cold, wet, or windy it might be!

Date:

Astronomy

Apr. 21, 2013 Rise Set
Actual Time 6:00 AM CDT 7:50 PM CDT
Civil Twilight 5:29 AM CDT 8:21 PM CDT
Nautical Twilight 4:51 AM CDT 9:00 PM CDT
Astronomical Twilight 4:09 AM CDT 9:42 PM CDT
Moon 3:24 PM CDT (4/21) 3:35 AM CDT (4/21)
Length of Visible Light 14h 52m
Length of Day
13h 49m
Waxing Gibbous, 80% of the Moon is Illuminated
Apr 21
Waxing Gibbous
Apr 25
Full
May 2
Last Quarter
May 9
New
May 17
First Quarter

Hourly Weather History & Observations

Time (CDT) Temp. Windchill Dew Point Humidity Pressure Visibility Wind Dir Wind Speed Gust Speed Precip Events Conditions
12:15 AM 27.1 °F 20.7 °F 16.3 °F 64% 30.35 in 10.0 mi ESE 5.8 mph - N/A   Clear
12:35 AM 27.1 °F 19.7 °F 16.5 °F 64% 30.35 in 10.0 mi ESE 6.9 mph - N/A   Clear
12:55 AM 27.1 °F 20.7 °F 15.6 °F 62% 30.36 in 10.0 mi ESE 5.8 mph - N/A   Clear
1:15 AM 26.6 °F 22.6 °F 15.8 °F 64% 30.36 in 10.0 mi ESE 3.5 mph - N/A   Clear
1:35 AM 26.1 °F 20.5 °F 15.1 °F 63% 30.36 in 10.0 mi SE 4.6 mph - N/A   Clear
4:15 AM 25.5 °F 17.8 °F 17.4 °F 71% 30.38 in 10.0 mi SSE 6.9 mph - N/A   Clear
4:35 AM 25.5 °F 17.8 °F 18.1 °F 74% 30.38 in 10.0 mi SSE 6.9 mph - N/A   Clear
4:55 AM 25.7 °F 18.0 °F 18.9 °F 75% 30.38 in 10.0 mi SSE 6.9 mph - N/A   Clear
5:15 AM 25.7 °F 16.4 °F 19.6 °F 78% 30.38 in 10.0 mi SE 9.2 mph - N/A   Scattered Clouds
5:35 AM 26.1 °F 16.8 °F 20.3 °F 79% 30.39 in 10.0 mi SE 9.2 mph - N/A   Overcast
5:55 AM 26.1 °F 15.6 °F 20.7 °F 80% 30.39 in 10.0 mi SE 11.5 mph - N/A   Overcast
6:15 AM 26.4 °F 16.6 °F 21.4 °F 81% 30.39 in 10.0 mi SE 10.4 mph - N/A   Overcast
6:35 AM 26.4 °F 16.0 °F 21.9 °F 83% 30.40 in 10.0 mi SE 11.5 mph - N/A   Overcast
6:55 AM 26.6 °F 16.2 °F 22.1 °F 83% 30.41 in 10.0 mi SSE 11.5 mph - N/A   Overcast
7:15 AM 27.0 °F 17.3 °F 22.1 °F 82% 30.42 in 10.0 mi SSE 10.4 mph - N/A   Overcast
7:35 AM 27.5 °F 18.0 °F 22.8 °F 83% 30.42 in 10.0 mi SSE 10.4 mph - N/A   Overcast
7:55 AM 28.0 °F 17.5 °F 23.0 °F 81% 30.43 in 10.0 mi SSE 12.7 mph - N/A   Overcast
8:15 AM 29.3 °F 19.1 °F 23.9 °F 80% 30.43 in 10.0 mi South 12.7 mph - N/A   Overcast
8:35 AM 30.0 °F 20.5 °F 24.3 °F 79% 30.43 in 10.0 mi South 11.5 mph - N/A   Overcast
8:55 AM 30.6 °F 21.2 °F 24.3 °F 77% 30.43 in 10.0 mi South 11.5 mph 16.1 mph N/A   Overcast
9:15 AM 32.0 °F 21.2 °F 24.8 °F 75% 30.43 in 10.0 mi South 16.1 mph - N/A   Overcast
9:35 AM 33.1 °F 24.4 °F 26.1 °F 75% 30.42 in 10.0 mi South 11.5 mph - N/A   Mostly Cloudy
9:55 AM 32.9 °F 22.8 °F 27.0 °F 79% 30.42 in 10.0 mi South 15.0 mph 18.4 mph N/A   Mostly Cloudy
10:15 AM 34.3 °F 24.2 °F 28.6 °F 79% 30.42 in 10.0 mi South 16.1 mph - N/A   Overcast
10:35 AM 34.9 °F 25.3 °F 29.1 °F 79% 30.42 in 10.0 mi SSE 15.0 mph 23.0 mph N/A   Overcast
10:55 AM 34.0 °F 24.6 °F 28.6 °F 81% 30.41 in 10.0 mi South 13.8 mph - N/A   Overcast
11:15 AM 33.6 °F 23.3 °F 27.7 °F 79% 30.41 in 10.0 mi South 16.1 mph - N/A   Overcast
11:35 AM 33.8 °F 23.5 °F 27.9 °F 79% 30.40 in 10.0 mi South 16.1 mph - N/A   Overcast
11:55 AM 33.8 °F 22.8 °F 27.5 °F 78% 30.39 in 10.0 mi South 18.4 mph 21.9 mph N/A   Overcast
12:15 PM 33.8 °F 24.8 °F 27.7 °F 78% 30.39 in 7.0 mi South 12.7 mph - N/A   Overcast
12:35 PM 32.9 °F 22.8 °F 27.9 °F 82% 30.38 in 10.0 mi SSE 15.0 mph - N/A   Overcast
12:55 PM 33.6 °F 22.6 °F 28.0 °F 80% 30.37 in 10.0 mi SSE 18.4 mph - N/A   Overcast
1:15 PM 33.1 °F 23.4 °F 28.0 °F 82% 30.36 in 10.0 mi SSE 13.8 mph 23.0 mph N/A   Overcast
1:35 PM 34.0 °F 24.6 °F 28.4 °F 80% 30.35 in 10.0 mi SSE 13.8 mph 20.7 mph N/A Snow Light Snow
1:55 PM 34.0 °F 23.4 °F 28.9 °F 82% 30.34 in 7.0 mi SSE 17.3 mph - N/A Snow Light Snow
2:15 PM 33.1 °F 23.0 °F 29.5 °F 87% 30.34 in 3.0 mi South 15.0 mph 20.7 mph N/A Snow Light Snow
2:35 PM 32.4 °F 22.5 °F 30.0 °F 91% 30.33 in 5.0 mi SSE 13.8 mph - N/A Snow Light Snow
2:55 PM 32.0 °F 20.5 °F 30.0 °F 92% 30.32 in 5.0 mi SE 18.4 mph 21.9 mph N/A Snow Light Snow
3:15 PM 31.8 °F 20.6 °F 29.8 °F 92% 30.31 in 5.0 mi SSE 17.3 mph 23.0 mph N/A Snow Light Snow
3:35 PM 32.0 °F 20.8 °F 29.5 °F 90% 30.31 in 10.0 mi SE 17.3 mph 21.9 mph N/A   Overcast
3:55 PM 32.0 °F 21.2 °F 30.0 °F 92% 30.30 in 10.0 mi SSE 16.1 mph 19.6 mph N/A   Overcast
4:15 PM 32.5 °F 20.8 °F 29.5 °F 88% 30.29 in 10.0 mi SE 19.6 mph 23.0 mph N/A   Overcast
4:35 PM 32.9 °F 22.8 °F 29.8 °F 88% 30.28 in 10.0 mi SE 15.0 mph 21.9 mph N/A   Overcast
4:55 PM 32.9 °F 21.3 °F 28.8 °F 85% 30.28 in 10.0 mi SSE 19.6 mph 25.3 mph N/A   Overcast
5:15 PM 33.1 °F 23.4 °F 29.1 °F 85% 30.27 in 10.0 mi SE 13.8 mph - N/A   Overcast
5:35 PM 33.1 °F 22.2 °F 28.2 °F 82% 30.26 in 10.0 mi SE 17.3 mph 21.9 mph N/A   Overcast
5:55 PM 33.8 °F 24.8 °F 28.0 °F 79% 30.25 in 10.0 mi SE 12.7 mph - N/A   Mostly Cloudy
6:15 PM 33.6 °F 22.6 °F 27.5 °F 78% 30.24 in 10.0 mi SE 18.4 mph - N/A   Mostly Cloudy
6:35 PM 33.3 °F 22.5 °F 26.8 °F 77% 30.23 in 10.0 mi SE 17.3 mph - N/A   Scattered Clouds
6:55 PM 32.4 °F 22.1 °F 25.9 °F 77% 30.22 in 10.0 mi SE 15.0 mph 20.7 mph N/A   Clear
7:15 PM 32.2 °F 21.4 °F 25.5 °F 76% 30.22 in 10.0 mi SE 16.1 mph 20.7 mph N/A   Clear
7:35 PM 32.0 °F 22.1 °F 25.3 °F 76% 30.21 in 10.0 mi SE 13.8 mph 23.0 mph N/A   Clear
7:55 PM 32.0 °F 21.6 °F 25.0 °F 75% 30.20 in 10.0 mi SE 15.0 mph - N/A   Clear
8:15 PM 32.0 °F 21.6 °F 25.0 °F 75% 30.20 in 10.0 mi SE 15.0 mph - N/A   Clear
8:35 PM 32.0 °F 21.2 °F 25.2 °F 76% 30.20 in 10.0 mi SE 16.1 mph - N/A   Clear
8:55 PM 32.0 °F 20.8 °F 25.0 °F 75% 30.20 in 10.0 mi SE 17.3 mph 21.9 mph N/A   Clear
9:15 PM 32.2 °F 22.3 °F 24.8 °F 74% 30.20 in 10.0 mi SE 13.8 mph 18.4 mph N/A   Clear
9:35 PM 32.7 °F 23.0 °F 24.8 °F 73% 30.20 in 10.0 mi SE 13.8 mph - N/A   Clear
9:55 PM 32.9 °F 22.8 °F 25.2 °F 73% 30.19 in 10.0 mi SE 15.0 mph 19.6 mph N/A   Clear
10:15 PM 32.9 °F 24.1 °F 25.5 °F 74% 30.20 in 10.0 mi SSE 11.5 mph 17.3 mph N/A   Mostly Cloudy
10:55 PM 33.3 °F 26.4 °F 25.7 °F 74% 30.18 in 10.0 mi SSE 8.1 mph - N/A   Overcast
11:15 PM 33.4 °F 27.3 °F 25.7 °F 73% 30.18 in 10.0 mi SSE 6.9 mph - N/A   Overcast
11:35 PM 33.8 °F 27.7 °F 26.8 °F 75% 30.17 in 10.0 mi SSE 6.9 mph - N/A   Light Drizzle
11:55 PM 33.4 °F 25.9 °F 28.4 °F 82% 30.17 in 7.0 mi SE 9.2 mph - N/A Rain Light Rain